GEFSMA_500_meanwind_096.txt.gz
Wind_Speed
8 7 7 6 5 5 4 5 5 6 6 6 7 7 8 9 9 9 10 10 10 12 13 13 13 14 14 15 15 16 17 16 15 15 14 13 12 11 10 9 8 7 6
6 6 5 4 4 4 4 5 5 5 5 5 6 6 6 6 7 8 9 10 11 12 12 13 13 14 15 14 15 16 17 18 17 17 18 16 15 14 12 11 10 9 8
5 4 4 3 4 4 4 4 4 4 4 4 4 5 5 6 7 8 8 8 9 10 11 12 13 13 14 15 15 15 16 18 19 20 20 19 18 16 15 14 13 11 10
3 3 3 2 3 3 3 4 4 4 4 4 5 5 5 6 6 7 8 8 9 9 10 11 12 13 13 13 14 14 14 17 18 20 21 21 20 19 18 16 15 14 13
1 0 0 1 2 3 3 3 3 4 5 5 5 5 6 6 7 7 8 8 8 9 9 10 11 12 12 13 13 14 14 14 17 19 21 22 22 22 21 20 18 17 16
1 1 1 2 2 3 3 4 4 4 5 5 6 6 6 7 7 7 7 8 8 8 9 9 10 10 11 12 13 13 15 15 14 16 19 21 22 24 23 22 21 20 19
2 1 1 2 2 3 4 4 5 5 6 6 6 7 7 7 8 8 8 8 9 9 9 9 10 10 10 12 13 14 14 15 15 15 18 20 21 23 24 24 24 23 22
2 1 1 1 2 3 4 4 5 6 7 7 7 7 8 8 8 9 9 9 9 9 10 10 10 11 12 12 12 13 14 14 15 15 16 18 20 22 24 24 25 25 24
3 1 1 1 2 3 4 4 5 6 7 7 7 8 9 9 9 10 10 10 10 10 10 11 11 11 12 13 13 13 14 15 15 15 16 17 18 19 22 24 26 26 26
3 2 1 1 2 3 4 5 6 6 7 8 8 9 10 11 11 10 11 11 11 11 12 12 12 12 13 13 14 14 14 15 15 16 16 17 18 20 21 23 25 27 27
4 3 2 2 2 3 3 4 5 7 8 8 9 10 11 11 12 11 11 11 12 12 13 13 13 14 14 14 15 15 16 16 17 17 18 18 18 18 19 21 22 24 26
5 4 4 3 4 4 4 5 6 8 8 9 10 11 12 12 12 12 12 12 12 13 14 14 15 15 15 16 16 17 17 18 18 19 19 20 21 21 20 20 22 23 24
6 6 6 5 6 6 7 8 9 9 10 11 11 12 13 13 13 14 14 14 14 14 15 15 16 17 17 17 18 19 19 20 20 20 21 22 22 23 23 23 24 25 26
8 8 8 8 8 9 10 10 11 12 12 13 13 14 14 15 15 15 16 16 16 16 16 16 17 17 18 18 19 20 20 21 21 22 22 23 24 25 25 26 27 27 28
10 10 10 10 11 12 12 13 14 14 15 15 15 16 16 17 17 17 17 18 18 18 18 18 18 18 19 19 20 21 21 22 22 23 24 24 25 26 27 28 28 29 30
12 12 12 13 14 14 15 16 17 17 18 18 18 18 19 19 19 19 19 20 20 20 20 19 19 19 20 20 20 21 22 22 23 23 24 25 26 27 28 29 30 31 32
15 15 15 15 16 17 18 19 20 20 21 21 21 21 21 21 21 21 22 22 22 22 22 22 22 21 21 22 22 22 22 23 24 24 25 25 26 27 28 29 31 32 33
18 18 18 18 19 20 21 21 22 22 23 23 23 23 23 23 23 23 23 23 24 24 24 24 24 24 24 24 24 24 24 24 24 25 26 27 28 28 29 30 31 32 33
20 20 20 21 21 22 23 23 24 24 25 25 25 25 25 25 25 25 25 25 25 25 26 26 26 26 26 26 26 26 26 26 26 26 26 27 28 29 30 31 31 32 33
22 23 23 23 24 24 25 25 25 26 26 27 27 27 28 27 27 27 27 28 28 27 27 27 28 28 28 28 28 28 28 28 28 28 28 27 28 29 30 31 32 33 34
24 24 25 25 25 26 26 27 27 28 28 28 29 29 29 29 29 29 29 29 29 29 30 30 30 30 31 30 30 30 29 30 29 30 29 29 29 29 30 32 32 33 34
26 26 27 27 27 27 28 28 29 28 29 30 30 31 31 31 31 31 31 32 32 32 32 32 32 33 33 33 33 33 32 31 31 32 31 31 31 31 31 31 32 33 34
27 27 28 28 28 28 29 30 31 31 31 32 32 33 33 33 33 33 33 33 34 35 35 35 35 35 35 35 35 35 35 34 34 34 34 33 33 33 33 33 33 33 34
28 29 30 30 30 31 32 33 33 33 33 34 34 35 35 35 35 36 36 36 36 37 37 38 38 37 38 38 38 38 37 37 36 36 37 35 35 35 35 35 35 34 35
29 30 31 31 32 33 34 35 35 36 36 36 36 37 37 38 38 39 39 39 39 40 40 41 40 40 39 40 40 40 40 39 38 38 39 39 37 37 37 37 37 36 36
31 32 33 33 34 35 35 36 38 39 39 39 39 39 40 41 41 42 43 43 42 43 44 44 44 43 42 42 43 43 43 43 42 41 41 42 41 40 39 38 38 38 38

GEFSMA_500_meanwind_102.txt.gz
Wind_Speed
8 7 7 6 5 5 5 5 5 6 6 7 6 6 5 5 6 6 6 5 6 6 7 8 8 8 9 9 9 10 10 10 12 12 11 11 10 10 10 10 9 8 7
6 6 6 5 4 4 4 4 4 4 5 5 5 5 4 4 4 4 5 5 5 5 6 7 7 8 9 9 9 10 11 12 13 14 14 13 12 12 11 11 11 10 9
5 4 4 3 2 2 2 2 2 2 3 4 4 4 4 3 3 3 3 3 4 4 5 6 7 7 8 9 9 10 11 12 13 14 15 15 15 14 14 13 13 12 11
5 4 3 3 3 2 1 1 1 1 2 3 4 4 4 3 3 3 3 3 4 4 5 6 7 8 8 8 9 10 11 12 14 15 15 16 17 17 16 15 14 14 14
5 4 4 3 3 2 1 1 1 1 1 2 3 4 4 3 3 3 3 3 3 4 4 5 6 7 8 9 9 10 10 11 13 13 15 17 17 18 19 18 17 16 16
6 5 5 4 3 2 2 1 1 1 1 2 2 4 5 4 4 4 3 3 3 3 4 4 5 6 7 8 9 9 10 11 12 13 13 15 17 18 19 20 20 19 18
7 7 6 5 4 3 2 2 2 2 2 2 3 3 4 4 5 5 4 3 2 2 3 3 3 4 5 7 8 9 10 11 12 13 13 14 15 17 19 20 21 21 20
9 7 6 5 4 3 2 2 2 2 2 2 3 3 4 4 5 5 4 3 3 2 3 3 3 3 4 5 7 8 9 10 11 12 13 14 15 17 18 20 22 22 22
9 8 6 5 4 3 3 2 2 2 3 3 3 3 4 4 5 5 5 4 3 3 3 3 4 4 5 6 6 7 8 9 10 11 12 13 14 15 18 20 22 23 24
9 8 7 6 5 4 2 2 2 2 2 2 3 3 4 4 5 5 5 5 4 4 4 4 5 6 6 6 7 8 8 9 10 11 13 13 13 14 16 17 19 22 24
10 9 8 7 5 4 3 2 1 1 1 2 3 3 4 5 5 5 5 5 5 5 5 5 6 6 7 7 8 8 9 10 11 12 13 14 14 15 15 17 18 20 21
11 10 9 8 6 5 4 3 2 2 2 2 3 4 4 5 6 6 6 6 6 6 7 7 7 7 8 8 9 9 10 11 12 13 13 14 15 16 17 17 18 19 20
12 11 10 9 8 7 6 5 5 5 4 5 5 5 6 6 7 7 7 7 7 7 8 8 8 8 9 9 9 10 11 12 13 14 15 15 16 17 18 19 19 20 21
13 12 11 11 10 9 8 8 8 7 7 7 8 8 8 8 9 9 9 10 10 9 9 9 10 10 10 10 10 11 11 12 13 14 15 16 17 18 19 19 20 21 22
14 14 13 13 12 11 11 11 11 10 10 10 10 10 11 11 11 11 11 11 12 12 11 11 11 11 12 12 12 12 13 13 14 15 16 17 18 19 20 21 22 23 24
15 15 15 14 14 14 14 14 14 14 13 13 13 13 14 14 14 13 13 13 14 14 14 13 13 13 13 14 14 15 15 15 15 16 17 18 18 20 21 22 22 24 25
17 17 17 17 17 16 16 17 17 17 17 17 16 16 16 16 16 16 16 16 16 16 16 16 16 16 16 16 16 16 17 17 18 18 18 19 19 20 21 22 23 24 25
19 19 19 20 20 19 19 20 20 20 20 20 19 19 19 19 19 19 18 18 18 18 18 19 19 19 19 19 19 19 19 19 20 21 21 21 21 22 22 23 24 25 26
21 21 22 22 23 23 23 23 23 23 23 22 22 22 21 21 21 21 21 21 21 21 21 21 22 22 22 22 22 21 21 22 22 23 23 24 24 24 24 24 25 26 27
22 23 23 24 25 25 26 26 26 25 25 25 24 24 24 24 24 24 24 24 24 24 24 24 24 24 24 25 25 25 25 25 25 25 26 26 26 27 27 27 27 27 27
23 24 25 26 27 28 29 28 28 28 27 27 27 27 27 27 27 26 26 26 27 27 27 27 27 27 27 27 28 28 28 28 28 28 28 28 29 29 29 30 30 30 30
25 26 27 28 29 29 29 30 30 29 29 29 29 30 29 29 29 29 29 29 29 29 30 30 30 30 30 31 31 31 31 31 31 32 31 31 32 31 32 32 32 32 33
27 28 29 30 30 31 31 31 31 30 30 30 30 31 31 31 32 32 32 32 32 32 33 33 33 33 33 34 35 35 35 35 34 35 35 34 34 34 34 34 35 35 35
29 29 30 30 31 31 32 32 33 33 33 32 33 33 34 34 35 36 36 35 35 35 36 36 36 36 37 38 38 39 38 38 38 38 38 37 37 37 37 37 37 37 37
29 30 31 31 32 33 33 32 32 33 34 34 34 35 36 37 38 39 38 38 37 38 39 39 39 40 40 41 42 42 43 43 42 41 42 41 40 41 40 40 40 40 40
31 32 32 32 32 33 34 33 34 35 36 37 37 38 39 39 40 40 40 40 40 41 42 43 43 43 44 45 46 47 47 48 47 45 45 46 45 45 44 43 44 43 43

GEFSMA_500_meanwind_108.txt.gz
Wind_Speed
8 7 7 6 6 6 5 4 4 3 2 2 3 3 3 3 3 3 4 4 4 6 7 7 8 9 10 10 10 10 10 10 10 11 11 10 10 9 8 8 7 7 6
7 7 6 5 5 4 4 3 3 2 2 2 2 3 3 3 3 3 3 4 4 5 6 7 8 9 10 10 10 10 10 10 11 12 12 12 11 11 10 10 9 8 8
7 6 5 4 3 3 2 2 2 2 2 2 2 2 2 2 2 2 3 3 3 4 5 6 7 8 9 9 9 9 10 11 11 12 13 14 14 13 12 12 11 10 9
7 6 4 3 3 2 1 1 1 2 2 2 2 2 2 2 2 2 2 2 3 4 5 6 7 8 9 9 9 9 9 10 12 12 13 14 14 14 14 14 13 13 12
7 6 5 4 2 1 0 1 1 2 2 2 2 2 2 2 2 1 1 1 2 3 4 5 6 8 8 9 10 9 9 10 11 13 13 14 14 15 15 15 15 15 14
8 7 6 4 3 2 1 0 1 1 1 2 2 2 2 2 2 2 1 1 2 3 4 5 6 7 7 8 9 9 10 10 11 12 13 14 14 15 16 17 17 17 17
9 8 7 5 3 2 1 0 0 1 1 1 1 2 2 2 2 2 2 2 1 2 2 3 4 5 6 7 8 9 9 10 11 11 12 13 14 15 16 17 18 18 19
9 8 8 6 4 3 2 1 1 0 0 1 1 1 1 2 2 3 2 2 2 2 1 2 3 4 5 6 7 8 9 10 11 12 13 14 14 15 16 17 17 18 19
10 10 8 7 5 4 3 2 1 0 0 0 1 1 1 1 2 3 3 2 2 2 2 2 3 4 5 6 6 8 8 9 10 11 12 14 15 15 16 16 17 18 19
11 11 9 8 6 5 4 3 2 1 0 0 0 1 2 2 2 3 3 3 3 3 3 4 4 5 6 7 7 8 8 9 10 11 12 13 14 15 15 17 18 19 20
12 11 10 9 7 6 5 4 3 2 2 1 1 2 2 3 3 3 4 4 4 4 4 5 5 6 6 7 8 9 9 9 10 11 12 13 13 14 16 16 17 18 19
13 12 11 10 9 8 7 6 5 4 3 3 3 3 4 4 4 5 5 5 6 6 6 6 6 7 7 8 8 9 10 10 11 11 12 13 14 14 15 16 16 17 19
14 13 12 12 11 10 9 8 7 6 6 6 6 6 6 6 7 7 7 7 7 7 7 8 8 8 8 9 9 9 10 11 12 12 13 13 14 15 16 16 17 18 19
15 14 14 13 13 12 11 10 10 9 9 9 9 9 10 10 10 10 10 10 10 10 10 10 10 10 10 10 10 11 11 12 12 13 14 14 15 16 17 18 18 19 19
16 15 15 15 15 15 14 13 13 12 13 13 13 13 13 13 13 13 13 13 13 13 13 13 13 13 13 13 13 13 13 13 14 14 14 15 16 17 18 19 20 21 21
16 16 17 17 17 17 16 16 16 16 16 16 16 16 16 16 17 17 17 17 17 16 16 16 16 16 16 16 16 16 16 17 17 17 17 17 18 18 19 20 21 22 23
18 18 18 18 19 19 19 19 20 20 20 20 20 20 20 20 20 20 20 20 20 19 19 19 19 18 18 19 19 20 20 20 19 19 19 20 20 20 21 21 22 23 24
18 19 19 20 20 21 22 22 23 23 23 24 23 24 24 24 24 24 24 23 23 22 22 22 22 22 22 22 22 22 23 23 23 23 23 23 23 23 24 24 24 25 25
20 21 21 22 23 24 24 25 26 26 27 27 27 28 28 28 28 27 27 27 27 26 26 26 26 26 26 26 26 25 26 26 26 26 26 26 26 26 26 26 27 27 27
22 23 24 25 25 26 27 28 28 29 30 30 31 31 31 31 31 31 31 30 30 29 29 29 29 29 29 29 29 29 29 29 29 29 29 29 29 29 29 29 30 30 30
25 26 27 27 28 29 30 31 31 32 33 33 33 34 34 34 34 34 33 33 32 32 32 32 32 31 31 32 32 32 32 32 32 32 33 33 33 33 33 33 33 33 33
27 28 29 30 30 32 33 33 34 35 35 35 36 36 36 36 36 36 36 36 36 35 35 35 35 35 35 35 35 35 35 35 35 36 36 36 36 36 36 36 36 36 36
28 29 30 32 33 34 34 35 37 36 36 37 38 38 38 39 39 39 39 38 38 38 38 39 38 38 38 38 38 38 38 39 38 39 39 39 39 39 39 39 39 39 39
28 29 31 33 34 35 37 38 38 38 39 39 40 40 40 40 41 41 41 41 41 42 42 42 42 42 42 42 42 42 42 42 42 42 43 42 42 42 42 43 43 43 43
28 30 31 33 34 36 37 37 38 38 39 40 40 40 41 41 41 42 42 43 43 44 45 45 44 44 44 45 45 45 45 45 45 45 46 46 45 46 46 46 47 47 47
30 32 33 34 34 36 38 39 39 39 39 39 40 40 41 42 42 43 43 44 45 46 47 46 46 47 47 47 48 48 49 49 49 48 49 51 51 52 50 49 50 51 52

GEFSMA_500_meanwind_114.txt.gz
Wind_Speed
6 5 3 2 2 2 1 1 1 1 1 2 2 2 2 3 3 4 4 5 5 6 7 8 9 10 10 11 12 12 11 11 11 11 11 10 10 9 8 8 7 6 6
6 5 4 4 3 2 1 0 0 0 1 1 1 2 2 2 3 3 3 4 4 5 6 7 8 8 9 10 11 12 11 11 11 11 11 12 11 11 10 10 9 8 7
7 5 5 4 3 2 2 1 1 1 1 0 1 1 2 2 2 2 2 3 3 4 5 7 7 8 9 10 11 11 11 12 12 12 12 13 13 13 12 12 11 10 9
8 6 5 5 4 3 2 1 1 1 1 1 1 1 1 2 2 1 2 2 3 3 4 5 6 7 7 8 10 10 11 11 12 12 13 13 14 14 14 13 13 12 11
8 7 6 5 4 3 3 2 2 2 1 1 1 1 1 2 2 1 1 2 3 3 4 5 5 6 6 7 9 10 10 11 11 12 13 14 14 15 15 15 14 14 13
9 8 7 6 5 4 3 3 3 2 2 1 1 1 1 1 2 2 2 2 2 2 3 4 5 6 6 6 7 8 9 10 11 11 13 13 14 15 16 16 16 16 15
10 8 7 7 6 5 4 3 3 2 2 1 1 1 1 1 1 1 2 2 2 2 2 3 4 5 5 6 7 7 8 8 10 11 11 12 13 14 15 16 16 17 17
10 8 7 7 6 5 4 4 3 3 2 1 1 0 1 2 2 2 2 2 2 2 2 3 3 4 5 6 6 7 8 9 9 10 11 12 13 14 14 14 15 15 16
10 9 8 7 7 6 5 4 4 3 3 2 1 1 1 2 2 2 3 3 3 3 3 3 3 4 5 6 6 7 8 8 9 10 11 12 13 14 15 15 15 16 17
11 10 9 9 8 7 6 6 5 4 3 2 2 1 1 2 2 3 3 4 4 4 4 5 5 5 6 6 7 7 8 8 9 10 11 11 11 13 14 15 15 15 16
12 11 10 10 9 8 8 7 6 5 3 3 2 2 2 2 3 3 4 4 4 5 5 6 7 7 7 7 7 8 8 9 10 10 11 11 11 12 13 14 15 15 16
13 12 11 11 10 10 9 8 7 6 5 4 3 3 3 4 4 4 5 5 6 6 7 7 7 8 8 9 9 9 9 10 10 10 11 11 11 12 13 14 15 15 16
13 13 13 12 12 11 11 10 9 8 7 6 6 5 6 6 6 7 7 7 8 8 8 9 9 9 10 10 10 10 10 11 11 11 11 12 12 12 13 14 15 16 16
15 14 14 14 13 13 13 12 11 11 10 9 9 8 9 9 9 10 10 10 11 11 11 11 11 11 12 12 12 12 12 12 12 13 13 13 13 14 14 15 15 16 17
15 16 15 15 15 15 15 14 13 13 13 12 12 12 12 12 13 13 13 14 14 14 14 14 14 14 15 15 15 15 14 14 15 15 15 15 15 15 16 16 17 18 18
15 17 17 16 16 16 17 17 16 16 16 16 16 16 16 16 16 16 17 17 17 18 18 18 18 18 18 18 18 18 17 17 17 18 17 17 17 18 18 18 18 18 19
16 17 17 17 17 17 18 18 19 19 19 19 20 20 20 20 20 20 21 21 21 21 21 21 21 21 21 21 21 21 21 21 20 20 20 20 20 20 21 21 21 21 21
17 17 18 18 18 18 19 20 20 21 21 22 23 23 23 24 24 24 24 25 25 25 25 25 25 25 25 25 25 25 25 25 24 24 24 24 24 24 24 24 24 24 24
18 18 19 19 19 20 20 21 22 23 24 25 25 26 26 26 27 28 28 28 29 29 29 29 29 29 29 29 29 28 28 28 28 28 27 27 28 28 28 28 28 28 28
19 20 20 21 22 22 23 24 25 26 26 27 28 28 29 29 30 31 31 32 32 33 33 33 32 32 32 32 32 32 32 32 31 31 31 31 31 31 31 31 31 31 31
20 21 22 24 24 25 26 27 27 28 29 30 31 31 32 33 33 34 34 34 35 35 35 35 35 35 35 36 35 35 35 35 35 35 35 34 34 34 34 34 34 35 35
20 22 23 24 26 27 28 29 30 31 32 33 33 34 35 36 36 36 37 38 38 38 37 37 38 38 38 38 38 38 38 38 38 38 38 37 38 38 38 37 37 37 38
21 23 23 25 26 28 30 31 33 34 34 35 36 37 37 38 39 39 39 39 40 40 40 40 40 40 40 39 39 40 40 40 40 41 41 41 42 41 41 41 40 40 40
24 25 26 27 28 29 31 32 33 34 36 37 38 39 39 40 39 40 41 40 40 40 41 41 41 42 42 41 41 41 42 43 43 43 44 43 44 44 44 44 43 43 44
26 28 28 29 30 31 32 34 34 35 36 37 38 39 39 40 40 40 40 41 41 42 42 43 43 43 44 44 44 44 45 46 46 46 46 46 47 47 47 47 47 47 47
29 31 31 32 32 32 33 35 36 37 37 38 38 39 40 41 42 42 43 43 44 44 45 46 45 45 46 46 46 47 47 48 48 49 50 50 50 51 50 49 50 51 51

GEFSMA_500_meanwind_120.txt.gz
Wind_Speed
9 8 6 5 4 3 2 1 0 0 1 1 2 2 2 3 3 3 3 3 3 4 4 5 6 7 7 8 9 10 9 8 8 8 7 7 7 7 6 6 5 4 4
9 7 6 5 4 3 2 1 0 1 1 1 2 2 3 3 3 3 3 2 3 3 3 4 4 5 6 7 7 9 9 8 8 8 9 8 8 8 7 7 7 6 6
8 7 5 4 4 3 2 1 0 1 1 2 2 3 3 4 3 3 2 3 3 2 2 3 3 4 5 7 7 8 8 8 8 9 10 10 9 9 8 8 8 8 8
8 7 6 5 4 3 2 1 0 1 1 2 2 3 3 4 4 4 3 3 3 3 2 2 3 3 3 4 6 7 8 9 8 9 9 10 11 10 10 10 9 9 9
9 8 7 6 4 3 2 1 1 0 1 2 2 3 3 4 4 4 4 4 4 4 3 3 2 2 3 4 4 5 7 8 8 9 9 10 10 11 11 11 11 11 11
10 9 8 7 5 4 3 2 2 1 0 1 2 3 3 3 4 4 4 5 5 5 5 3 2 2 3 3 3 4 5 6 7 7 8 9 9 10 12 12 12 13 13
11 9 8 7 6 5 4 3 2 1 1 1 2 3 3 3 4 4 4 5 5 6 5 5 3 3 3 2 2 2 3 4 5 6 7 8 8 9 10 11 12 13 13
11 10 9 8 7 6 5 4 3 2 1 1 1 2 3 3 4 4 5 4 5 6 6 6 4 3 3 3 3 3 3 4 5 5 7 7 8 8 9 11 11 12 12
12 10 10 9 8 7 6 5 3 3 2 1 1 2 2 3 3 4 5 5 5 6 6 6 5 5 5 4 4 4 4 4 5 5 6 7 8 9 10 11 11 12 12
13 12 11 10 9 8 7 6 4 3 2 1 0 1 1 2 3 4 5 5 5 6 6 6 6 6 5 5 5 5 5 5 5 6 6 7 7 8 9 10 11 11 12
14 13 12 10 10 9 8 7 6 5 3 2 1 1 2 2 3 3 4 5 5 6 6 6 6 7 7 6 6 6 6 6 6 7 7 7 8 8 9 10 11 12 12
14 13 13 12 11 10 10 9 8 7 5 4 3 3 3 3 4 4 4 5 5 6 7 7 7 7 7 8 7 7 7 7 8 8 8 8 9 9 10 10 10 11 12
14 14 14 13 12 11 11 10 10 9 7 6 6 5 5 5 5 6 6 7 7 8 8 9 9 9 9 9 8 9 9 9 9 10 10 10 10 11 11 11 11 12 13
15 14 14 13 13 12 12 12 11 11 10 9 9 8 8 8 9 9 9 10 10 10 10 11 11 11 11 11 11 11 11 11 11 11 11 11 12 12 12 12 13 13 13
15 14 14 13 13 13 13 13 13 13 12 12 12 12 12 12 12 12 13 13 13 13 13 14 14 14 14 14 14 14 14 13 14 13 13 13 14 14 14 14 15 15 15
15 15 14 14 14 14 14 15 15 15 15 15 15 15 15 15 15 16 16 16 17 17 17 17 17 17 17 17 17 17 17 17 17 17 17 17 17 17 17 17 17 17 17
16 15 15 15 14 14 15 16 17 17 17 18 18 18 19 19 19 19 19 20 20 21 21 21 21 21 21 21 21 21 21 21 21 21 21 21 21 20 20 20 20 21 21
16 16 16 16 15 16 16 17 18 19 19 19 20 20 21 21 22 22 23 23 24 24 24 24 24 24 24 24 24 24 24 24 25 25 25 25 24 24 24 24 24 24 24
17 17 17 18 18 18 18 18 19 20 20 20 21 22 22 23 24 25 26 26 27 28 28 27 27 28 28 28 28 28 28 28 28 28 28 28 28 28 28 28 28 28 28
15 16 18 18 19 19 19 20 21 22 22 23 24 24 25 26 27 28 29 29 30 30 31 31 31 31 31 31 31 31 30 31 31 31 31 32 32 32 31 32 32 32 32
15 15 16 17 18 19 20 21 22 23 23 24 25 26 27 28 30 31 31 32 33 33 34 34 34 34 34 34 34 34 34 34 34 34 34 34 34 35 34 34 35 35 35
16 16 16 17 18 19 20 22 23 24 24 26 27 29 29 30 32 34 35 35 35 35 36 37 37 37 37 38 38 38 37 36 36 37 38 37 37 36 37 37 37 37 38
16 17 18 19 19 20 22 24 24 25 26 27 29 30 31 32 32 34 35 36 36 36 37 38 39 39 40 40 41 41 41 40 39 39 40 40 40 40 40 39 39 40 40
18 19 20 21 21 22 24 25 26 27 27 29 29 30 31 32 32 34 35 36 37 38 39 39 39 41 42 42 43 44 45 44 43 43 44 44 43 43 43 43 43 42 43
20 21 22 23 24 24 26 27 28 29 29 30 32 32 33 34 35 36 37 38 38 39 40 41 41 42 42 43 44 45 46 47 46 45 46 46 46 45 45 45 45 45 45
22 23 24 24 25 26 27 29 30 32 32 33 35 36 36 37 38 39 39 41 41 42 43 43 44 44 45 45 45 46 47 47 48 47 47 49 48 48 47 47 48 48 48

GEFSMA_500_meanwind_126.txt.gz
Wind_Speed
7 7 6 5 4 3 3 2 2 1 1 2 2 1 2 2 1 1 1 1 2 2 3 3 4 5 6 6 7 8 8 8 8 7 7 7 7 7 7 7 7 6 6
8 7 6 5 4 3 2 1 1 0 1 1 1 1 2 2 2 2 1 1 2 2 2 3 3 4 6 6 6 7 8 8 9 8 8 8 8 8 7 8 8 8 7
9 7 6 6 5 4 3 2 1 0 1 1 1 2 2 2 2 2 3 3 2 2 2 2 2 3 5 6 6 7 8 8 8 8 9 9 10 9 9 8 9 9 8
9 9 8 7 6 5 4 3 2 1 1 1 2 2 3 2 3 3 4 4 3 3 2 2 2 3 3 4 5 6 7 8 8 9 9 10 10 11 10 10 10 9 9
10 10 8 7 6 5 4 3 2 1 1 2 2 2 3 3 3 4 5 5 4 4 3 2 2 3 3 3 4 5 6 7 8 9 9 10 10 11 11 11 11 10 10
11 10 9 8 7 6 4 3 3 2 2 2 2 2 2 2 3 4 4 4 4 4 4 3 2 2 2 2 3 4 5 6 6 8 9 10 10 10 11 11 12 12 12
12 11 10 9 8 7 5 4 4 3 3 3 3 3 2 3 3 3 3 3 4 4 4 4 3 2 2 2 2 3 4 4 5 6 7 8 9 10 11 12 12 12 13
13 12 11 10 9 7 6 5 4 4 4 3 3 3 3 3 3 3 3 3 3 3 3 3 3 3 2 2 1 2 2 3 4 5 6 7 9 9 10 10 11 12 13
14 13 12 10 10 8 7 6 5 5 5 4 4 4 3 3 3 3 3 2 2 2 2 3 2 2 2 1 1 1 1 2 4 5 6 7 9 9 10 10 11 12 13
15 14 12 11 11 10 9 8 7 6 6 6 5 4 3 3 2 2 2 2 2 2 2 2 1 1 0 0 1 2 2 3 4 5 6 7 8 9 10 10 11 12 13
15 15 13 12 12 11 10 9 9 8 7 7 5 4 4 3 2 2 1 1 1 0 1 1 1 1 1 2 2 3 3 4 4 5 6 7 8 8 9 10 11 11 13
16 15 14 13 13 13 12 11 10 10 9 8 7 6 5 4 3 3 2 2 2 2 2 3 3 3 3 3 3 4 5 6 6 7 7 8 9 10 10 11 12 12 12
17 16 15 14 14 13 13 12 12 12 11 10 9 7 7 6 5 5 4 4 4 4 5 5 5 5 6 6 6 6 7 7 8 8 9 9 10 11 12 13 13 14 14
18 18 17 16 15 14 14 14 13 13 13 12 11 10 9 9 8 7 7 7 7 7 7 7 8 8 8 8 9 9 9 10 10 11 11 11 12 12 13 14 15 16 16
19 19 18 16 15 15 15 15 14 14 14 13 12 12 11 11 11 11 11 10 10 10 10 10 11 11 12 12 12 12 12 13 13 14 14 15 15 15 15 16 16 17 18
20 20 18 17 16 16 16 16 15 15 15 15 15 14 14 14 14 14 14 13 13 13 14 14 14 14 15 15 16 16 17 17 17 17 18 18 18 19 19 19 20 20 21
21 21 19 18 17 17 17 17 17 17 17 17 17 17 16 16 17 17 17 17 17 16 16 17 17 18 18 19 19 20 20 21 21 21 21 22 22 22 23 22 23 23 24
20 20 20 19 18 18 18 18 19 19 19 19 19 19 19 19 19 19 19 20 20 20 20 20 21 21 22 22 22 23 23 24 24 24 25 25 25 26 26 26 27 27 27
20 20 20 20 20 20 20 20 20 20 20 20 21 21 21 22 22 22 22 22 23 23 23 24 24 25 25 26 26 26 26 27 27 28 28 29 29 29 30 30 31 31 31
19 20 20 20 20 20 20 21 21 20 21 21 22 23 24 24 24 24 25 25 25 25 26 27 28 28 29 30 30 30 30 31 31 32 32 32 32 33 33 34 34 35 35
18 19 20 20 20 20 21 21 21 21 22 22 23 23 24 25 25 26 26 27 27 28 29 30 30 30 31 32 32 32 33 33 33 34 35 35 36 36 36 37 38 38 38
18 20 21 21 20 20 21 22 22 23 23 23 23 23 24 25 26 26 27 29 30 30 31 32 32 32 33 34 35 35 35 35 35 37 38 38 39 40 41 41 42 42 42
19 19 19 20 20 21 22 22 23 24 25 26 26 25 26 26 27 28 29 30 31 31 32 33 34 35 35 36 37 37 38 38 38 39 41 41 43 43 44 44 45 46 46
19 19 20 20 22 23 23 24 25 26 26 26 27 27 27 28 29 30 31 32 33 34 35 36 37 37 38 38 39 39 40 41 41 42 44 44 44 45 46 46 48 48 48
20 20 21 22 23 24 25 26 26 27 27 28 28 29 30 30 31 32 33 35 36 37 37 38 39 39 40 41 41 42 43 44 44 45 46 47 46 46 46 46 48 49 50
21 22 23 24 24 24 26 27 28 29 29 30 30 31 32 33 34 35 36 38 39 39 39 40 40 41 42 43 44 45 46 46 47 47 48 49 49 50 49 49 50 51 51

GEFSMA_500_meanwind_132.txt.gz
Wind_Speed
6 5 3 3 2 2 2 1 2 2 2 2 2 2 1 1 0 0 0 1 2 3 4 5 5 5 6 6 7 7 7 8 7 7 6 6 6 6 5 5 5 5 5
7 5 4 4 2 1 1 0 1 1 2 2 2 2 2 1 1 1 0 1 2 3 3 4 5 5 6 7 7 7 8 8 8 8 8 7 7 7 6 6 6 6 6
8 7 5 5 3 2 1 0 0 1 1 2 2 2 2 1 1 1 1 1 1 2 2 3 4 5 6 6 7 7 7 8 9 8 8 8 8 8 8 7 7 7 7
9 8 7 6 5 3 2 1 0 1 2 2 2 2 2 2 2 2 2 2 1 1 1 2 3 3 5 6 6 7 7 8 8 9 9 9 9 9 9 9 8 8 8
10 9 8 7 6 4 3 2 0 0 1 2 2 1 2 2 2 2 2 2 2 1 0 1 1 2 3 4 5 6 6 7 8 8 8 9 9 10 10 10 10 10 10
10 10 9 8 7 5 4 2 1 1 0 1 1 1 2 2 2 2 2 2 2 2 1 1 1 1 2 3 4 4 6 6 7 8 8 8 9 10 10 10 11 11 11
12 11 10 9 8 7 5 4 3 2 1 1 1 1 2 2 2 2 2 2 2 2 2 2 1 1 2 2 3 4 5 6 6 6 7 8 9 9 10 11 11 11 12
13 12 11 11 10 8 6 5 4 3 2 2 1 1 1 1 1 1 1 1 1 2 2 2 2 2 1 2 2 3 4 4 6 7 7 8 8 9 10 11 11 11 12
14 14 13 11 10 9 8 6 5 4 3 3 3 2 1 1 1 1 0 0 1 1 2 2 2 2 2 2 3 3 4 5 6 7 8 8 9 9 11 11 12 12 12
15 14 14 12 11 10 9 8 7 6 5 4 4 3 2 2 1 1 1 1 1 1 2 2 2 3 3 4 4 4 5 6 6 7 7 8 9 10 10 11 12 12 13
15 15 14 13 12 11 10 9 9 7 7 6 6 5 4 3 2 2 2 2 2 2 3 3 3 4 4 5 5 6 6 6 7 8 8 9 9 10 11 12 13 13 14
16 15 15 14 13 12 12 11 10 9 9 8 8 7 6 5 5 4 4 4 4 4 5 5 6 6 6 6 7 7 7 8 9 9 10 10 11 12 13 14 14 14 15
16 16 16 15 14 13 12 11 11 11 10 10 10 10 9 8 7 7 6 6 6 7 7 7 8 8 8 8 9 9 10 10 10 11 12 12 13 14 14 15 16 16 17
17 17 18 17 16 15 14 13 12 12 12 12 12 12 11 11 10 10 10 10 10 10 10 10 10 11 11 11 11 12 12 13 13 13 14 15 15 16 16 16 17 18 19
19 18 19 18 17 16 15 15 14 14 14 14 14 14 14 13 13 13 13 13 13 13 13 14 14 14 14 14 15 15 15 15 16 16 17 18 18 18 19 19 19 20 21
19 19 20 20 19 18 17 16 16 16 16 16 16 15 15 15 15 16 16 16 16 16 16 17 17 17 17 17 18 18 19 19 20 20 21 21 22 22 23 23 23 23 23
19 19 20 20 20 20 19 19 18 18 18 18 18 19 18 18 19 19 19 19 19 19 19 20 20 20 20 20 21 22 22 23 24 24 24 25 25 26 26 26 26 26 27
19 20 21 21 22 22 21 20 20 20 20 20 21 21 21 22 22 22 22 22 22 22 22 22 22 23 23 24 24 25 25 26 27 27 27 27 28 28 29 29 30 30 30
18 20 21 22 23 23 22 21 21 21 22 22 22 22 23 23 23 24 24 24 24 24 24 24 25 25 26 27 27 28 28 29 30 30 31 31 32 32 33 33 33 33 34
18 19 21 22 22 22 22 22 22 23 23 23 23 23 23 23 24 24 25 26 26 26 27 27 27 28 29 30 30 31 31 32 32 33 33 34 35 36 36 37 37 38 38
18 19 20 21 22 22 23 23 22 22 23 24 24 23 24 24 25 25 26 27 28 28 29 29 29 30 31 32 33 34 34 34 35 36 36 37 37 38 39 40 41 41 42
18 20 21 22 22 22 24 24 24 24 23 24 25 25 25 26 26 27 27 28 29 30 31 31 32 33 34 35 36 36 37 37 37 38 39 40 41 41 42 43 44 44 45
19 20 21 21 21 22 23 25 25 25 25 25 26 27 28 28 28 28 29 30 31 32 33 34 35 36 37 38 38 39 40 40 40 41 42 42 43 44 45 46 47 47 48
19 20 21 22 23 23 24 24 25 26 27 27 28 28 29 30 30 31 32 33 34 35 36 37 38 39 40 41 42 42 43 43 44 45 46 46 46 47 48 49 49 50 50
20 20 23 24 25 24 25 25 25 26 27 29 29 30 32 32 33 35 36 36 37 39 40 40 41 42 43 44 44 44 45 46 47 48 49 49 49 50 50 51 52 53 54
21 22 23 24 24 25 25 26 27 29 30 30 30 31 33 33 34 35 37 38 39 40 42 43 44 44 45 45 46 47 47 48 49 50 51 52 52 53 53 52 54 55 56

GEFSMA_500_meanwind_138.txt.gz
Wind_Speed
9 8 6 4 3 3 3 3 2 2 2 3 2 1 1 1 1 1 2 2 3 3 3 4 4 5 5 5 6 6 6 7 7 7 6 6 6 6 5 5 5 5 5
10 8 7 5 4 3 3 2 2 2 2 2 2 1 1 1 1 1 1 1 1 3 3 4 4 4 5 5 5 6 7 7 8 7 7 7 7 7 6 6 6 6 6
11 10 8 6 5 4 3 2 2 2 2 2 2 2 2 2 1 1 1 1 1 1 2 2 3 3 4 5 5 6 6 7 7 8 8 7 7 7 7 7 7 7 7
12 11 9 7 6 5 4 3 3 2 2 2 2 2 2 2 2 2 2 2 1 1 1 1 1 2 2 3 4 5 6 6 7 7 7 7 7 7 8 8 8 7 7
13 12 10 8 7 6 5 3 3 2 2 2 2 2 3 3 3 2 2 2 2 2 1 1 0 0 1 2 3 4 4 5 5 6 6 7 7 8 8 8 8 8 8
14 13 11 10 8 7 5 4 3 2 2 2 2 2 3 3 2 2 2 2 2 2 2 1 1 1 1 1 2 2 3 4 4 5 6 6 7 8 9 9 10 9 10
15 13 12 11 10 8 7 5 4 3 3 2 2 2 2 2 2 1 1 1 1 2 2 1 1 1 1 1 2 2 3 3 4 5 6 6 7 7 8 9 9 10 10
15 14 12 11 11 9 8 6 5 4 3 3 3 2 2 1 1 1 1 1 1 0 1 2 2 2 1 2 1 2 2 3 5 5 6 6 7 7 8 8 9 10 10
16 15 13 13 12 10 9 8 6 5 4 4 4 3 2 2 1 1 2 2 1 1 1 2 2 2 2 2 2 2 3 3 4 5 6 6 6 7 8 9 10 10 11
17 16 15 14 13 11 10 9 8 7 6 6 5 5 4 3 2 2 2 2 2 2 2 3 3 3 3 4 3 4 4 5 5 6 7 7 7 8 9 10 10 11 12
17 17 16 15 14 13 12 11 9 8 7 7 7 6 6 5 4 4 4 3 3 3 3 4 4 4 4 5 5 5 6 6 7 7 8 9 9 10 10 11 11 12 13
18 17 17 16 15 15 13 12 11 10 9 9 9 8 7 7 7 6 6 5 5 5 5 5 5 6 6 6 7 7 8 8 9 9 10 10 11 12 12 13 13 13 14
18 18 18 17 17 16 15 14 13 12 12 11 11 10 10 9 9 9 8 8 8 8 7 8 8 8 8 9 9 9 10 10 11 11 12 12 13 13 14 15 15 16 16
18 17 17 18 17 17 16 16 15 14 14 13 13 13 12 12 12 11 11 11 11 11 11 11 11 11 11 11 12 12 12 13 13 14 14 15 15 16 16 17 18 18 19
18 18 18 18 18 18 18 17 16 16 16 15 15 15 15 15 15 15 14 14 14 13 13 13 14 13 13 14 14 15 15 15 16 17 17 17 18 19 20 20 21 21 22
17 18 19 19 19 20 20 19 18 18 18 18 18 17 17 17 17 17 17 17 17 17 17 17 17 17 17 17 17 18 18 19 19 19 20 20 21 22 22 23 23 24 25
17 18 19 20 20 19 20 21 20 20 19 19 19 19 19 20 19 20 20 20 20 20 21 20 20 20 21 21 21 22 22 22 22 23 23 24 24 25 25 26 27 27 27
17 18 19 20 20 20 19 20 21 22 21 21 21 21 21 20 21 21 22 22 22 22 23 24 24 23 24 24 24 25 25 25 26 26 26 27 27 28 29 29 29 30 30
17 18 19 19 20 21 22 22 23 23 23 23 22 23 23 23 23 24 24 24 24 24 25 25 26 26 26 27 27 27 28 28 29 29 30 30 31 32 32 32 33 33 33
17 18 19 19 20 22 23 24 24 24 25 24 24 24 24 25 25 25 25 25 26 26 27 27 28 29 29 30 30 31 31 31 32 33 33 34 35 35 36 36 37 37 37
17 19 20 21 21 22 23 24 24 25 25 26 26 26 25 25 26 27 27 27 28 28 29 29 30 31 31 31 32 33 34 35 36 36 37 38 38 38 39 39 40 40 41
19 19 20 21 21 22 23 24 25 25 26 27 27 27 27 27 27 28 28 29 30 30 31 31 31 33 34 34 35 36 37 38 38 38 39 40 41 42 43 43 43 43 44
19 21 20 21 22 23 23 24 25 26 27 27 28 28 28 28 28 29 30 30 31 32 32 33 34 35 36 36 37 38 38 39 40 42 42 43 44 45 46 47 47 47 47
21 21 21 21 23 23 23 24 25 25 25 26 27 27 27 28 29 30 31 32 34 34 34 36 37 38 40 40 41 41 42 43 44 45 46 46 47 46 46 47 47 48 49
23 22 22 22 22 22 22 24 25 26 26 27 27 27 29 30 31 31 33 34 34 35 36 38 39 40 42 42 42 42 43 44 45 46 47 47 47 47 48 49 50 51 52
23 23 23 23 22 23 23 24 26 28 28 28 28 29 30 32 33 34 35 36 37 37 37 39 39 40 41 42 43 44 46 46 47 47 48 48 49 50 51 52 52 53 54